Helicity
45 -7 -26 12 26 35 41 52 62 56 68 100 110 96 97 87 41 -4 4 -7 5 7 1 3 11 13 14 21 32 38 54 44 30 43 -2 -26 -47 -29 -23 14 57 82 92 114 101
8 11 15 14 22 35 43 58 70 65 71 100 114 108 100 81 20 10 -7 5 12 6 17 20 21 23 29 34 33 54 72 34 42 42 8 -33 -37 -24 -13 -0 30 53 62 131 136
4 16 19 18 22 38 49 57 82 82 81 95 108 118 101 51 41 20 14 16 14 14 22 13 23 30 37 33 48 43 67 48 40 51 48 -4 3 38 52 12 110 25 -3 71 110
-5 7 20 21 30 34 47 58 86 94 87 94 104 110 92 53 60 52 31 46 38 31 27 32 30 42 53 43 43 51 52 70 51 67 64 46 40 75 130 156 85 37 60 85 93
11 7 19 26 30 40 42 57 88 100 91 94 104 100 60 71 50 26 54 54 49 41 36 35 40 35 50 47 44 71 53 42 38 54 66 80 90 62 54 55 51 40 29 -1 84
-3 5 24 31 30 32 42 54 84 107 94 93 99 97 64 71 51 36 45 49 47 50 37 36 29 26 38 49 51 41 36 38 27 82 56 49 34 44 80 58 40 10 28 15 6
14 14 20 19 25 34 49 65 93 99 98 102 90 62 65 44 56 45 56 65 53 42 36 34 46 54 49 54 45 43 49 44 47 69 45 13 38 20 67 49 -14 35 53 39 32
16 14 13 10 22 32 49 81 98 98 83 88 69 62 40 49 58 61 61 77 79 78 56 47 53 67 61 55 67 63 53 67 54 48 40 19 56 39 77 43 42 79 83 89 66
10 16 12 12 32 41 62 92 106 98 63 60 65 60 32 60 57 58 79 70 93 93 95 76 73 73 83 85 74 71 52 53 47 56 52 34 65 58 28 28 44 67 69 74 87
22 24 21 21 31 50 72 82 94 79 72 59 64 67 50 51 63 70 95 93 82 88 78 83 88 90 95 97 65 60 51 49 77 22 31 47 64 48 2 31 62 50 68 80 78
30 29 15 22 33 53 75 94 113 109 88 54 60 88 39 74 65 64 74 109 99 91 66 80 83 80 59 62 67 52 51 55 84 20 27 43 40 34 89 94 81 74 93 102 93
21 20 19 32 43 55 77 64 60 55 52 26 53 46 52 39 41 63 83 78 82 63 84 80 50 57 78 71 54 49 51 45 12 17 18 40 19 60 113 81 65 69 87 99 97
28 29 30 47 57 54 44 34 59 51 32 45 51 51 62 95 49 39 81 87 78 73 69 64 55 64 51 47 44 44 41 38 19 32 37 22 24 59 72 73 71 64 75 92 91
48 46 53 68 76 59 39 38 37 34 64 47 46 45 70 96 29 92 96 100 98 35 56 32 46 30 49 40 54 42 28 28 31 39 16 43 35 39 71 75 78 82 96 106 75
67 63 61 89 71 74 70 70 52 56 114 40 68 76 89 108 64 86 138 163 102 74 73 46 43 35 46 43 44 18 45 37 33 49 53 48 74 42 78 67 85 81 108 101 72
81 73 80 101 99 80 83 88 88 120 96 39 49 62 108 120 131 89 81 140 99 85 57 19 47 28 34 67 61 59 50 66 62 55 60 53 89 70 102 84 126 86 100 86 84
91 68 78 96 97 85 85 125 158 109 76 44 41 51 69 73 77 75 69 84 74 81 51 54 53 79 81 76 72 81 74 41 51 69 59 68 104 81 129 113 87 128 108 81 61
103 88 84 110 109 111 150 177 123 71 74 55 58 88 43 50 46 74 78 64 24 54 69 67 73 60 67 79 57 68 60 62 61 57 62 74 86 140 112 88 107 178 135 97 49
96 133 117 123 117 168 180 190 87 57 71 70 84 67 60 68 80 92 55 44 33 103 59 62 60 73 82 79 82 64 62 72 100 85 90 82 86 100 145 195 199 182 139 76 48
146 139 135 170 130 207 196 154 92 80 96 80 80 82 66 73 85 72 59 51 58 53 94 60 88 83 88 95 114 88 80 105 103 66 52 87 83 109 115 143 179 178 105 26 21
171 169 159 203 196 247 209 168 65 91 99 91 83 93 81 73 78 84 72 60 46 60 78 87 99 79 90 62 73 118 116 145 126 145 108 98 50 43 92 168 182 88 31 -27 -5
159 186 188 246 276 268 223 145 81 102 104 107 111 100 88 92 100 98 84 67 36 55 67 73 90 77 51 71 87 96 100 137 146 112 188 199 149 82 170 197 106 6 -7 -17 2
166 186 208 258 231 273 251 158 125 119 106 102 102 103 101 98 117 76 74 96 78 76 55 43 110 107 96 111 101 93 101 148 184 193 206 242 154 122 161 137 103 36 -38 -0 93
205 255 243 218 260 193 235 157 143 114 96 117 102 114 104 99 96 101 78 80 96 105 131 138 142 123 106 72 83 84 88 133 195 224 228 353 225 211 141 85 113 19 30 103 124
296 175 144 189 225 210 187 110 168 140 120 88 113 98 92 100 109 94 84 92 101 105 138 142 122 123 96 94 124 121 112 153 229 249 267 221 233 190 164 133 65 62 136 115 89
190 225 263 193 231 206 198 173 130 134 134 136 121 63 115 127 102 52 72 89 87 137 146 181 136 125 105 108 99 105 98 122 194 217 268 231 127 177 127 163 165 117 87 76 65
204 240 202 177 200 207 178 191 119 119 84 96 79 128 113 70 102 117 98 102 104 101 126 161 183 163 113 122 116 91 127 130 183 161 141 173 114 163 161 123 94 73 84 85 48
Wind_Speed
50 51 53 49 49 48 48 47 45 41 41 42 42 41 40 39 35 26 26 25 25 25 28 28 29 31 31 27 28 26 25 21 21 19 20 16 12 16 18 6 32 21 14 30 44
53 52 52 52 51 50 49 49 45 42 41 42 42 41 41 40 32 31 26 20 25 26 28 31 32 33 29 28 29 28 29 26 23 24 15 5 3 13 16 9 2 2 2 36 31
54 57 55 54 52 51 49 50 47 43 42 41 43 43 42 35 30 31 26 17 24 26 30 32 32 33 33 32 29 28 28 28 24 16 24 9 5 24 26 4 5 21 58 43 29
58 60 57 54 52 52 51 50 48 46 43 42 43 43 40 31 21 31 23 15 22 26 30 33 35 34 34 36 34 38 31 29 40 36 35 32 33 30 16 5 36 43 33 35 26
59 60 57 56 53 51 51 50 50 45 42 42 43 42 34 34 35 30 18 18 24 28 33 35 39 36 36 34 38 38 45 39 39 43 38 33 21 24 0 26 40 46 53 58 35
59 58 55 55 54 51 49 48 48 45 42 42 43 42 35 36 33 25 19 23 29 31 36 36 36 34 38 37 36 42 47 55 52 39 37 36 41 38 33 43 51 60 60 60 63
59 57 53 53 52 49 47 47 49 44 43 43 43 37 38 41 30 23 23 30 31 34 39 37 34 35 33 40 40 46 59 56 38 35 41 37 44 29 39 49 58 51 54 55 56
42 51 51 52 47 47 43 46 47 45 41 42 38 35 44 36 35 29 28 32 31 34 36 34 32 33 37 36 46 47 46 40 40 45 39 41 48 37 40 58 47 45 48 51 53
42 41 43 48 44 44 43 45 47 46 39 37 35 37 48 37 41 38 30 34 31 33 36 34 35 35 36 38 43 41 39 41 49 48 41 43 50 37 49 46 32 37 43 48 52
42 45 44 41 38 41 42 40 40 37 32 31 36 39 42 34 36 35 31 28 34 32 37 37 37 35 35 34 40 39 42 41 49 44 55 49 47 59 52 24 22 32 39 44 50
39 41 43 38 37 35 35 28 31 38 40 42 35 40 33 31 32 32 27 23 28 33 36 38 40 36 36 26 32 37 37 44 57 45 46 46 57 53 34 21 23 30 37 43 48
37 35 36 32 32 33 29 32 35 34 46 54 52 47 40 38 34 31 24 27 29 33 34 41 47 42 33 27 31 35 39 48 46 36 47 48 48 35 25 22 22 28 36 41 45
33 31 29 26 28 32 34 35 36 35 43 49 42 46 47 36 37 30 24 29 30 33 35 44 41 32 32 34 36 35 35 42 43 47 40 48 35 25 23 21 23 28 34 39 43
31 29 27 21 34 32 41 35 32 34 42 43 36 39 31 24 40 38 25 28 29 38 38 41 41 37 35 35 28 40 34 35 41 46 44 43 35 24 19 18 20 26 32 36 41
34 29 25 26 30 33 36 24 25 31 45 32 28 30 26 20 23 30 35 37 31 35 35 37 32 31 33 33 25 34 38 41 41 42 42 35 32 30 19 13 16 20 27 33 37
35 30 23 34 33 34 23 19 24 36 47 29 26 29 22 28 30 28 30 28 31 33 38 44 42 40 36 33 31 31 41 43 40 36 38 32 33 35 21 14 13 15 21 27 34
37 28 27 29 35 21 18 22 35 45 36 32 30 29 27 26 28 28 28 27 27 30 35 35 36 38 35 36 37 36 41 44 38 36 38 34 39 36 30 27 15 9 18 25 32
38 31 40 37 29 18 26 30 49 41 38 30 27 25 26 22 29 25 27 30 30 30 35 38 41 32 33 36 37 34 36 35 40 40 45 41 41 38 41 32 13 16 22 28 32
27 35 37 37 27 26 29 44 43 37 33 29 28 30 32 31 29 27 29 35 29 12 33 34 39 33 33 34 34 35 38 33 40 44 50 43 42 40 30 22 16 21 28 32 36
32 33 40 36 27 31 38 49 40 35 35 32 34 32 31 30 30 28 32 33 35 22 29 33 41 36 35 35 37 37 27 38 41 49 53 47 49 37 16 13 19 24 32 39 37
36 37 39 35 31 39 50 46 46 43 38 35 36 35 35 32 30 31 34 35 29 25 23 29 36 37 36 37 37 37 38 39 39 41 50 58 48 31 8 16 22 26 36 35 39
36 44 36 33 43 49 51 42 44 45 42 39 35 35 34 30 33 35 39 38 27 21 26 30 37 41 39 40 39 40 40 35 45 48 45 51 53 41 12 16 24 31 35 38 41
34 42 36 36 60 58 52 52 49 44 44 42 39 37 36 34 39 37 38 36 32 31 33 28 41 48 47 44 41 40 40 41 43 46 48 54 48 29 22 22 37 39 39 42 46
42 52 45 46 50 51 52 55 56 50 54 44 43 40 39 41 41 41 41 39 37 36 36 32 42 46 53 52 44 46 44 41 44 55 57 44 46 36 27 31 47 46 43 43 49
48 56 49 60 67 54 50 53 57 53 50 47 55 52 45 45 45 47 45 43 42 36 36 38 52 49 55 52 50 54 53 48 51 53 58 58 44 38 39 45 49 39 38 44 52
49 50 48 51 46 56 56 62 54 51 49 52 51 47 42 48 43 44 38 41 45 40 41 43 52 51 62 57 58 66 62 63 65 69 74 72 51 49 53 43 31 29 37 48 55
49 44 47 53 50 51 62 57 56 50 52 51 49 47 47 50 47 45 41 43 42 40 39 45 48 56 73 62 67 79 68 56 65 60 60 58 55 37 32 27 30 37 45 57 61
Wind_Direction
272 271 263 266 266 268 271 271 269 274 275 276 280 283 281 285 295 315 315 334 346 356 347 352 353 346 345 359 360 22 3 14 14 24 25 64 51 49 37 141 347 11 4 348 330
263 266 264 261 259 262 267 265 267 273 275 275 278 283 283 287 294 295 323 349 338 345 344 347 344 343 347 352 350 351 351 1 21 22 30 130 103 32 23 213 290 49 226 346 350
262 252 256 254 255 259 265 263 263 269 273 277 277 282 287 295 296 297 317 358 343 344 339 341 345 341 338 339 345 349 345 351 360 17 5 7 36 10 10 207 187 239 313 343 357
251 245 247 255 257 256 260 261 263 267 273 275 278 282 290 295 305 304 322 346 351 349 342 338 337 339 336 330 333 328 340 343 334 342 347 349 352 355 15 205 357 347 3 358 358
248 240 248 251 260 263 262 262 260 273 279 278 281 285 290 285 285 315 332 337 340 336 335 333 330 335 331 333 327 325 322 328 333 329 337 345 354 354 222 1 352 342 338 332 341
227 233 256 257 260 265 269 268 267 273 281 283 284 285 286 282 296 311 323 324 324 326 328 332 332 337 329 330 329 324 319 313 318 329 338 344 339 345 356 345 336 330 327 328 329
243 247 260 263 267 270 273 269 266 277 281 282 285 288 283 278 301 312 312 310 318 322 320 330 337 332 338 329 330 321 310 314 332 334 332 346 335 354 348 339 337 342 341 342 345
277 264 264 262 272 271 274 269 270 275 285 283 288 289 279 288 293 298 302 307 319 324 326 335 340 336 329 337 324 321 322 333 329 327 335 340 327 345 344 334 345 352 357 360 0
275 278 276 269 273 270 270 269 268 273 284 286 288 286 279 290 282 288 296 300 312 322 325 332 332 330 334 332 328 329 330 330 325 329 333 334 325 346 337 339 360 3 6 8 8
273 270 272 276 275 271 270 275 279 284 289 289 285 286 282 290 286 290 292 301 308 318 315 318 320 328 333 333 326 331 330 330 323 330 320 322 326 322 329 3 25 13 11 12 11
276 273 271 276 273 279 280 289 286 283 276 269 282 273 297 291 293 294 301 308 312 311 310 315 317 324 325 334 334 330 332 329 311 330 329 332 321 328 349 40 35 19 11 8 8
274 277 275 278 278 277 284 278 280 288 276 267 269 273 281 284 292 291 298 298 304 303 312 314 314 317 322 334 330 328 328 323 323 337 330 331 332 350 13 21 20 15 9 5 3
274 276 278 282 281 278 275 277 283 287 283 274 277 273 272 278 286 294 287 295 303 305 313 306 313 331 327 325 323 325 328 324 321 324 337 331 346 359 4 12 12 9 5 6 3
272 273 276 283 272 277 269 276 282 291 282 280 280 278 278 281 284 282 287 298 307 305 310 309 310 310 315 318 330 323 330 327 324 325 329 338 338 344 354 2 3 1 2 4 4
267 269 272 272 277 268 274 287 286 288 270 290 285 284 280 274 296 296 283 287 294 300 305 310 316 317 317 320 336 327 322 320 325 328 330 337 341 344 345 348 352 360 3 5 4
262 264 267 264 274 272 279 284 280 271 267 292 290 281 281 281 292 303 304 308 306 297 295 291 297 306 315 324 325 330 317 321 328 332 329 339 340 340 348 340 342 1 7 13 4
258 258 257 265 262 273 276 267 265 262 280 282 285 283 283 287 295 300 301 297 295 299 295 303 303 305 310 311 314 316 315 321 327 329 328 340 334 336 341 340 347 16 11 6 2
254 252 255 260 266 260 262 265 258 274 273 286 288 289 290 298 298 299 303 297 288 298 302 300 301 309 311 306 311 313 316 322 321 322 323 333 331 339 336 336 8 13 6 359 355
250 250 254 255 259 256 254 255 266 275 283 280 287 288 285 289 299 298 295 294 300 281 297 306 304 314 316 314 312 313 313 324 320 321 320 328 334 338 350 357 14 4 0 351 346
248 249 251 253 253 252 255 258 271 282 284 283 279 287 289 288 289 293 291 303 295 299 301 308 303 313 313 312 312 309 324 317 318 316 318 326 329 331 351 357 356 357 353 345 348
246 248 255 248 251 251 252 261 266 274 280 283 283 285 288 292 287 291 296 299 306 313 303 310 308 312 313 307 307 308 306 313 318 318 318 319 332 347 355 342 344 347 344 346 344
246 250 254 243 244 254 253 265 269 271 275 282 288 285 286 292 293 290 290 291 309 317 310 306 311 305 308 310 310 305 306 308 307 313 316 320 322 328 325 341 347 343 342 339 339
248 256 256 248 249 252 259 261 266 269 273 275 280 284 288 292 294 294 294 299 299 300 305 308 302 302 306 309 307 306 306 306 309 311 308 313 320 331 326 324 332 333 332 329 330
252 251 255 251 261 254 255 261 261 268 269 275 280 281 285 287 290 294 295 298 299 299 302 304 298 296 295 302 308 306 306 305 302 304 307 305 307 315 301 304 317 323 325 328 329
249 251 251 250 250 257 258 266 260 263 268 272 272 273 279 284 288 288 291 293 296 300 301 297 294 297 298 300 301 301 301 301 296 298 299 307 297 298 299 305 313 321 327 327 330
245 253 254 259 260 250 257 259 261 265 265 268 272 278 276 276 282 291 295 293 291 294 291 296 296 299 296 301 300 297 299 299 296 296 296 298 293 303 306 311 318 327 329 330 332
252 260 259 258 257 253 257 259 262 265 270 270 273 276 278 280 285 288 292 294 295 294 290 293 295 297 294 301 301 296 301 302 304 304 302 298 302 307 310 315 320 324 327 328 331